Weather History for Seward, AK

Change the Weather History Date:

Wednesday, March 5, 2014

  Actual Average Record
Temperature  
Mean Temperature 34 °F -  
Max Temperature 37 °F 34 °F 47 °F (1993)
Min Temperature 30 °F 24 °F -4 °F (1971)
Degree Days  
Heating Degree Days 32    
Moisture  
Dew Point 30 °F    
Average Humidity 83    
Maximum Humidity 93    
Minimum Humidity 66    
Precipitation  
Precipitation 0.01 in - - ()
Sea Level Pressure  
Sea Level Pressure 29.70 in    
Wind  
Wind Speed 9 mph (SSW)    
Max Wind Speed 16 mph    
Max Gust Speed 22 mph    
Visibility 8 miles    
Events Snow    
Averages and records for this station are not official NWS values.
T = Trace of Precipitation, MM = Missing Value Source: NWS Daily Summary

Daily Weather History Graph

Daily Weather History Graph

Search for Another Location

Airport:

Trip Planner

Search our weather history database for the weather conditions in past years. The results will help you decide how hot, cold, wet, or windy it might be!

Date:

Astronomy

Mar. 05, 2014 Rise Set
Actual Time 7:43 AM AKST 6:35 PM AKST
Civil Twilight 7:02 AM AKST 7:17 PM AKST
Nautical Twilight 6:13 AM AKST 8:05 PM AKST
Astronomical Twilight 5:24 AM AKST 8:56 PM AKST
Moon 8:58 AM AKST (3/5) 12:04 AM AKST (3/5)
Length of Visible Light 12h 15m
Length of Day
10h 51m
Waxing Crescent, 24% of the Moon is Illuminated
Mar 5
Waxing Crescent
Mar 8
First Quarter
Mar 16
Full
Mar 23
Last Quarter
Mar 30
New

Hourly Weather History & Observations

Time (AKST) Temp. Windchill Dew Point Humidity Pressure Visibility Wind Dir Wind Speed Gust Speed Precip Events Conditions
12:03 AM 35.1 °F 29.3 °F 32.0 °F 89% 29.80 in 10.0 mi South 6.9 mph - N/A   Overcast
12:30 AM 35.1 °F 28.6 °F 30.9 °F 85% 29.80 in 10.0 mi South 8.1 mph - N/A   Overcast
12:42 AM 35.1 °F 26.4 °F 30.9 °F 85% 29.80 in 10.0 mi SSW 12.7 mph - N/A   Overcast
12:53 AM 35.1 °F 26.4 °F 30.9 °F 85% 29.79 in 10.0 mi SSW 12.7 mph - 0.00 in Snow Light Snow
1:51 AM 35.6 °F 27.5 °F 32.0 °F 87% 29.78 in 10.0 mi South 11.5 mph - 0.00 in   Overcast
1:53 AM 35.1 °F 26.9 °F 32.0 °F 89% 29.78 in 10.0 mi SSW 11.5 mph - 0.00 in   Overcast
2:07 AM 35.1 °F 25.9 °F 32.0 °F 89% 29.78 in 10.0 mi SSW 13.8 mph 18.4 mph 0.00 in   Overcast
3:28 AM 35.1 °F 25.9 °F 33.1 °F 92% 29.76 in 8.0 mi South 13.8 mph 18.4 mph 0.00 in Snow Light Snow
3:53 AM 35.1 °F 30.1 °F 33.1 °F 92% 29.76 in 7.0 mi Variable 5.8 mph - 0.00 in Snow Light Snow
4:10 AM 36.0 °F 28.0 °F 30.0 °F 79% 29.75 in 10.0 mi South 11.5 mph - 0.00 in   Overcast
4:18 AM 35.1 °F 25.5 °F 30.0 °F 82% 29.75 in 10.0 mi South 15.0 mph 21.9 mph 0.01 in   Overcast
4:25 AM 36.0 °F 29.6 °F 30.0 °F 79% 29.75 in 10.0 mi South 8.1 mph 20.7 mph 0.01 in   Overcast
4:50 AM 35.6 °F 28.6 °F 28.4 °F 75% 29.74 in 10.0 mi South 9.2 mph 17.3 mph 0.01 in   Overcast
4:53 AM 36.0 °F 28.5 °F 28.9 °F 76% 29.74 in 10.0 mi South 10.4 mph 17.3 mph 0.01 in   Overcast
5:34 AM 36.0 °F 29.6 °F 28.9 °F 76% 29.73 in 10.0 mi South 8.1 mph - N/A   Overcast
5:53 AM 36.0 °F 26.3 °F 30.0 °F 79% 29.73 in 10.0 mi South 16.1 mph 20.7 mph N/A   Overcast
6:53 AM 35.1 °F 25.9 °F 30.0 °F 82% 29.73 in 10.0 mi SSW 13.8 mph - N/A   Overcast
7:53 AM 35.1 °F 26.4 °F 30.9 °F 85% 29.72 in 10.0 mi SSW 12.7 mph 16.1 mph N/A   Overcast
8:53 AM 35.1 °F 27.9 °F 30.0 °F 82% 29.71 in 10.0 mi South 9.2 mph - 0.00 in   Overcast
9:53 AM 35.1 °F 27.9 °F 30.0 °F 82% 29.70 in 10.0 mi SSW 9.2 mph - N/A   Overcast
10:53 AM 35.1 °F 27.9 °F 30.0 °F 82% 29.70 in 9.0 mi SW 9.2 mph - N/A   Overcast
11:41 AM 34.0 °F 28.8 °F 30.9 °F 89% 29.69 in 2.0 mi South 5.8 mph - 0.00 in Snow Light Snow
11:49 AM 33.8 °F - 32.0 °F 93% 29.69 in 3.0 mi Calm Calm - 0.00 in Snow Light Snow
11:53 AM 35.1 °F - 32.0 °F 89% 29.69 in 5.0 mi Calm Calm - 0.00 in Snow Light Snow
12:09 PM 36.0 °F 30.3 °F 30.9 °F 82% 29.68 in 10.0 mi SSW 6.9 mph - 0.00 in   Overcast
12:53 PM 37.0 °F 29.8 °F 30.0 °F 76% 29.68 in 10.0 mi SSW 10.4 mph - 0.00 in   Overcast
1:53 PM 37.0 °F 29.8 °F 30.0 °F 76% 29.67 in 10.0 mi South 10.4 mph - N/A   Overcast
2:53 PM 37.0 °F 31.0 °F 30.0 °F 76% 29.66 in 10.0 mi SW 8.1 mph - N/A   Overcast
3:26 PM 34.0 °F 28.0 °F 30.0 °F 85% 29.65 in 1.5 mi SW 6.9 mph - 0.00 in Snow Light Snow
3:30 PM 34.0 °F 29.8 °F 30.0 °F 85% 29.65 in 1.0 mi SW 4.6 mph - 0.00 in Snow Light Snow
3:34 PM 35.1 °F 30.1 °F 30.9 °F 85% 29.65 in 1.2 mi WSW 5.8 mph - 0.00 in Snow Light Snow
3:38 PM 35.1 °F 30.1 °F 30.9 °F 85% 29.65 in 2.5 mi WSW 5.8 mph - 0.00 in Snow Light Snow
3:45 PM 35.1 °F - 30.9 °F 85% 29.65 in 9.0 mi Calm Calm - 0.00 in   Overcast
3:53 PM 36.0 °F - 30.9 °F 82% 29.65 in 9.0 mi Calm Calm - 0.00 in   Overcast
4:53 PM 37.0 °F 32.4 °F 30.0 °F 76% 29.64 in 10.0 mi South 5.8 mph - N/A   Overcast
5:53 PM 35.1 °F 28.6 °F 30.0 °F 82% 29.63 in 10.0 mi South 8.1 mph - N/A   Partly Cloudy
6:53 PM 34.0 °F - 30.0 °F 85% 29.63 in 10.0 mi Calm Calm - N/A   Mostly Cloudy
7:25 PM 32.0 °F - 26.1 °F 79% 29.63 in 10.0 mi Calm Calm - N/A   Scattered Clouds
7:53 PM 30.9 °F - 28.0 °F 89% 29.63 in 10.0 mi Calm Calm - N/A   Scattered Clouds
8:53 PM 32.0 °F 24.2 °F 25.0 °F 75% 29.63 in 10.0 mi North 9.2 mph - N/A   Scattered Clouds
9:53 PM 32.0 °F 28.7 °F 25.0 °F 75% 29.64 in 10.0 mi WNW 3.5 mph - N/A   Overcast
10:53 PM 32.0 °F - 27.0 °F 82% 29.65 in 9.0 mi Calm Calm - 0.00 in   Overcast
11:53 PM 33.1 °F 26.9 °F 23.0 °F 66% 29.65 in 8.0 mi NE 6.9 mph - 0.00 in Snow Light Snow